Flag for France Weather past 2 weeks in Saint-Denis, France

Now
70 °F

Partly sunny.


Feels Like: 70 °F
Forecast: 56 / 69 °F
Wind: 9 mph from Southwest

Location: Paris Le Bourget Airport

Current Time: Aug 30, 2014 at 2:48:02 PM

Latest Report: Aug 30, 2014 at 2:00 PM


Visibility: N/A

Pressure: 30.09 "Hg

Humidity: 64%

Dew point: 57 °F

Location of Saint-DenisLocation

Historic Weather in Saint-Denis — Graph

°F

Saint-Denis temperature yesterday

Maximum temperature yesterday: 73 °F (at 4:00 PM)
Minimum temperature yesterday: 57 °F (at 5:30 AM)
Average temperature yesterday: 65 °F

Past Weeks' High & Low Weather Summary

 TemperatureHumidityPressure
High73 °F (Aug 16, 5:30 PM)100% (Aug 16, 7:00 AM)30.21 "Hg (Aug 16, 7:00 AM)
Low46 °F (Aug 21, 5:00 AM)40% (Aug 18, 7:00 PM)29.65 "Hg (Aug 25, 11:00 PM)
Average62 °F74%29.99 "Hg
* Reported Aug 15 1:00 PM — Aug 30 1:30 PM, Saint-Denis, Weather by CustomWeather, © 2014

Note: Actual official high and low records may vary slightly from our data, if they occured in-between our weather recording intervals... More about our weather records

Advertising

Saint-Denis weather history for previous 24 hours

 ConditionsComfort  
Time TempWeatherWind HumidityBarometerVisibility
1:30 PM
Aug 30
68 °FCloudy.8 mph69%30.09 "HgN/A
1:00 PM68 °FOvercast.9 mph69%30.09 "HgN/A
12:30 PM66 °FOvercast.8 mph73%30.09 "HgN/A
12:00 PM64 °FClear.9 mph78%30.09 "HgN/A
11:30 AM64 °FMore clouds than sun.10 mph78%30.12 "HgN/A
11:00 AM64 °FMore clouds than sun.9 mph78%30.12 "HgN/A
10:30 AM64 °FPartly sunny.9 mph78%30.12 "HgN/A
10:00 AM64 °FClear.9 mph78%30.12 "HgN/A
9:30 AM63 °FClear.9 mph83%30.12 "HgN/A
9:00 AM61 °FClear.6 mph83%30.09 "HgN/A
8:30 AM59 °FClear.3 mph88%30.09 "HgN/A
8:00 AM57 °FClear.2 mph94%30.09 "HgN/A
7:30 AM57 °FClear.5 mph88%30.09 "HgN/A
7:00 AM57 °FClear.5 mph88%30.09 "HgN/A
6:30 AM57 °FClear.3 mph88%30.09 "HgN/A
6:00 AM57 °FClear.5 mph88%30.09 "HgN/A
5:30 AM57 °FClear.3 mph88%30.09 "HgN/A
5:00 AM57 °FClear.5 mph88%30.09 "HgN/A
4:30 AM57 °FClear.6 mph88%30.09 "HgN/A
4:00 AM57 °FClear.6 mph88%30.09 "HgN/A
3:30 AM59 °FClear.3 mph82%30.09 "HgN/A
3:00 AM59 °FClear.3 mph82%30.09 "HgN/A
2:30 AM61 °FClear.3 mph77%30.09 "HgN/A
2:00 AM61 °FClear.3 mph77%30.09 "HgN/A
1:30 AM63 °FClear.2 mph73%30.09 "HgN/A
1:00 AM63 °FClear.3 mph73%30.09 "HgN/A
12:30 AM64 °FClear.3 mph68%30.09 "HgN/A
12:00 AM64 °FOvercast.5 mph68%30.09 "HgN/A
11:30 PM
Aug 29
66 °FClear.6 mph64%30.09 "HgN/A
11:00 PM64 °FClear.3 mph68%30.09 "HgN/A
9:00 PM66 °FClear.2 mph60%30.07 "HgN/A
8:30 PM66 °FClear.6 mph60%30.07 "HgN/A
8:00 PM70 °FClear.8 mph53%30.07 "HgN/A
7:30 PM70 °FClear.9 mph53%30.07 "HgN/A
7:00 PM70 °FClear.9 mph53%30.04 "HgN/A
6:30 PM72 °FClear.8 mph50%30.04 "HgN/A
6:00 PM72 °FScattered clouds.9 mph47%30.04 "HgN/A
5:30 PM72 °FClear.9 mph50%30.04 "HgN/A
5:00 PM72 °FClear.12 mph50%30.04 "HgN/A
4:30 PM72 °FClear.10 mph50%30.04 "HgN/A
4:00 PM73 °FClear.13 mph50%30.04 "HgN/A
3:30 PM72 °FClear.9 mph53%30.04 "HgN/A
3:00 PM72 °FPartly sunny.13 mph53%30.07 "HgN/A
2:30 PM72 °FScattered clouds.9 mph57%30.07 "HgN/A
2:00 PM70 °FBroken clouds.8 mph60%30.07 "HgN/A
Weather by CustomWeather, © 2014

See weather overviewHow to use our weather pages